Station Historical Data
Daily Summary for July 28, 2017 Units:  Metric    English   Both
« Previous Day
Next Day »
Daily Weekly Monthly Yearly Custom
  High: Low: Average:
Temperature: 23.8 °C 15.1 °C 20 °C
Dew Point: 18.9 °C 10.3 °C 15.1 °C
Humidity: 87% 54% 74%
Wind Speed: 20.9km/h 0km/h 6.1km/h
Wind Gust: 30.6km/h - -
Wind- - ENE
Pressure: 1014.1 hPa 1011.4 hPa -
Precipitation: 0 mm    
Historical Graphs
 
 
Tabular Data for July 28, 2017
Time Temperature Dew Point Pressure Wind Wind Speed Wind Gust Humidity Rainfall Rate (Hourly)
00:04 22.2 °C 18.9 °C 1011.7 hPa Calm   6.4 km/h 82% 0 mm
00:09 22.1 °C 18.9 °C 1011.7 hPa NNW 1.6 km/h 6.4 km/h 82% 0 mm
00:14 22.1 °C 18.7 °C 1011.7 hPa NNW 3.2 km/h 8 km/h 81% 0 mm
00:19 21.9 °C 18.7 °C 1011.7 hPa North 4.8 km/h 4.8 km/h 82% 0 mm
00:24 21.8 °C 18.6 °C 1011.7 hPa Calm   4.8 km/h 82% 0 mm
00:29 21.7 °C 18.5 °C 1011.7 hPa Calm   4.8 km/h 82% 0 mm
00:34 21.6 °C 18.4 °C 1011.7 hPa NNW 6.4 km/h 9.7 km/h 82% 0 mm
00:39 21.4 °C 18.2 °C 1011.7 hPa NNW 3.2 km/h 9.7 km/h 82% 0 mm
00:44 21.3 °C 18.3 °C 1011.7 hPa North 3.2 km/h 9.7 km/h 83% 0 mm
00:49 21.2 °C 18.2 °C 1011.7 hPa NNW 1.6 km/h 9.7 km/h 83% 0 mm
00:55 21.1 °C 18.1 °C 1011.7 hPa NNW 1.6 km/h 8 km/h 83% 0 mm
00:59 21 °C 18 °C 1011.7 hPa Calm   3.2 km/h 83% 0 mm
01:04 20.9 °C 17.9 °C 1011.7 hPa Calm   4.8 km/h 83% 0 mm
01:09 20.8 °C 18.1 °C 1011.7 hPa NNW 1.6 km/h 6.4 km/h 84% 0 mm
01:14 20.8 °C 18.1 °C 1011.7 hPa Calm   4.8 km/h 84% 0 mm
01:19 20.8 °C 18.1 °C 1011.7 hPa Calm   3.2 km/h 84% 0 mm
01:24 20.9 °C 18.1 °C 1011.7 hPa Calm   3.2 km/h 84% 0 mm
01:29 20.9 °C 18.1 °C 1011.7 hPa NNE 1.6 km/h 3.2 km/h 84% 0 mm
01:34 20.9 °C 18.1 °C 1011.7 hPa NNE 1.6 km/h 4.8 km/h 84% 0 mm
01:39 20.8 °C 18.1 °C 1011.7 hPa NNE 1.6 km/h 4.8 km/h 84% 0 mm
01:44 20.8 °C 18 °C 1011.4 hPa NNE 1.6 km/h 4.8 km/h 84% 0 mm
01:49 20.7 °C 17.9 °C 1011.7 hPa NNE 1.6 km/h 4.8 km/h 84% 0 mm
01:54 20.6 °C 17.8 °C 1011.7 hPa NNW 3.2 km/h 4.8 km/h 84% 0 mm
01:59 20.6 °C 17.8 °C 1011.7 hPa East 1.6 km/h 4.8 km/h 84% 0 mm
02:04 20.5 °C 17.7 °C 1011.7 hPa North 1.6 km/h 4.8 km/h 84% 0 mm
02:09 20.5 °C 17.7 °C 1011.7 hPa NNE 1.6 km/h 4.8 km/h 84% 0 mm
02:14 20.4 °C 17.6 °C 1011.7 hPa NNE 1.6 km/h 6.4 km/h 84% 0 mm
02:19 20.2 °C 17.4 °C 1011.4 hPa Calm   8 km/h 84% 0 mm
02:24 20.2 °C 17.4 °C 1011.4 hPa Calm   4.8 km/h 84% 0 mm
02:29 20.1 °C 17.3 °C 1011.7 hPa NNE 1.6 km/h 16.1 km/h 84% 0 mm
02:34 20.1 °C 17.1 °C 1011.4 hPa NE 4.8 km/h 11.3 km/h 83% 0 mm
02:39 20 °C 17 °C 1011.4 hPa NE 3.2 km/h 11.3 km/h 83% 0 mm
02:44 19.9 °C 16.9 °C 1011.4 hPa ENE 8 km/h 12.9 km/h 83% 0 mm
02:49 19.9 °C 16.9 °C 1011.7 hPa NE 6.4 km/h 14.5 km/h 83% 0 mm
02:54 19.8 °C 16.8 °C 1011.7 hPa NE 6.4 km/h 20.9 km/h 83% 0 mm
02:59 19.8 °C 16.8 °C 1011.4 hPa NE 8 km/h 19.3 km/h 83% 0 mm
03:04 19.8 °C 16.8 °C 1011.4 hPa NE 8 km/h 19.3 km/h 83% 0 mm
03:09 19.8 °C 16.8 °C 1011.4 hPa NE 9.7 km/h 17.7 km/h 83% 0 mm
03:14 19.8 °C 16.8 °C 1011.4 hPa NE 9.7 km/h 17.7 km/h 83% 0 mm
03:20 19.7 °C 16.7 °C 1011.4 hPa NE 8 km/h 16.1 km/h 83% 0 mm
03:24 19.6 °C 16.7 °C 1011.7 hPa ENE 6.4 km/h 14.5 km/h 83% 0 mm
03:29 19.6 °C 16.6 °C 1011.7 hPa ENE 4.8 km/h 14.5 km/h 83% 0 mm
03:34 19.5 °C 16.6 °C 1011.7 hPa ENE 4.8 km/h 14.5 km/h 83% 0 mm
03:39 19.4 °C 16.4 °C 1011.7 hPa ENE 6.4 km/h 14.5 km/h 83% 0 mm
03:44 19.3 °C 16.4 °C 1011.7 hPa ENE 3.2 km/h 12.9 km/h 83% 0 mm
03:49 19.3 °C 16.3 °C 1011.7 hPa ENE 4.8 km/h 14.5 km/h 83% 0 mm
03:54 19.2 °C 16.3 °C 1011.7 hPa NE 8 km/h 16.1 km/h 83% 0 mm
03:59 19.2 °C 16.4 °C 1011.7 hPa NE 6.4 km/h 16.1 km/h 84% 0 mm
04:04 19.1 °C 16.2 °C 1011.7 hPa NE 8 km/h 16.1 km/h 83% 0 mm
04:09 19.1 °C 16.2 °C 1011.7 hPa NE 8 km/h 17.7 km/h 83% 0 mm
04:14 19.1 °C 16.3 °C 1011.7 hPa NE 6.4 km/h 14.5 km/h 84% 0 mm
04:19 19.1 °C 16.3 °C 1011.7 hPa NNE 9.7 km/h 14.5 km/h 84% 0 mm
04:24 19 °C 16.2 °C 1011.7 hPa NE 6.4 km/h 14.5 km/h 84% 0 mm
04:29 18.9 °C 16.2 °C 1011.7 hPa NE 6.4 km/h 16.1 km/h 84% 0 mm
04:34 18.8 °C 16.1 °C 1012.1 hPa NE 6.4 km/h 17.7 km/h 84% 0 mm
04:39 18.8 °C 16.1 °C 1012.1 hPa ENE 4.8 km/h 14.5 km/h 84% 0 mm
04:44 18.8 °C 16 °C 1012.1 hPa ENE 8 km/h 12.9 km/h 84% 0 mm
04:49 18.8 °C 16 °C 1012.1 hPa ENE 1.6 km/h 14.5 km/h 84% 0 mm
04:54 18.7 °C 15.9 °C 1012.1 hPa ENE 4.8 km/h 14.5 km/h 84% 0 mm
04:59 18.7 °C 15.9 °C 1012.1 hPa NE 6.4 km/h 14.5 km/h 84% 0 mm
05:04 18.6 °C 16.1 °C 1012.1 hPa NE 4.8 km/h 12.9 km/h 85% 0 mm
05:09 18.6 °C 16 °C 1012.1 hPa NE 6.4 km/h 12.9 km/h 85% 0 mm
05:14 18.5 °C 15.9 °C 1012.1 hPa ENE 4.8 km/h 12.9 km/h 85% 0 mm
05:19 18.4 °C 15.8 °C 1012.1 hPa Calm   11.3 km/h 85% 0 mm
05:24 18.3 °C 15.7 °C 1012.1 hPa NE 4.8 km/h 16.1 km/h 85% 0 mm
05:29 18.2 °C 15.8 °C 1012.1 hPa NE 3.2 km/h 16.1 km/h 86% 0 mm
05:34 18.2 °C 15.8 °C 1012.1 hPa NE 4.8 km/h 14.5 km/h 86% 0 mm
05:44 18.2 °C 15.8 °C 1012.1 hPa NE 6.4 km/h 12.9 km/h 86% 0 mm
05:49 18.2 °C 15.8 °C 1012.1 hPa ENE 1.6 km/h 11.3 km/h 86% 0 mm
05:54 18.1 °C 15.7 °C 1012.4 hPa NE 4.8 km/h 11.3 km/h 86% 0 mm
05:59 18.1 °C 15.7 °C 1012.4 hPa NE 9.7 km/h 16.1 km/h 86% 0 mm
06:04 18.1 °C 15.7 °C 1012.4 hPa NE 1.6 km/h 12.9 km/h 86% 0 mm
06:09 18 °C 15.6 °C 1012.4 hPa NE 4.8 km/h 14.5 km/h 86% 0 mm
06:14 18 °C 15.6 °C 1012.4 hPa NE 1.6 km/h 8 km/h 86% 0 mm
06:19 18 °C 15.6 °C 1012.4 hPa NE 3.2 km/h 12.9 km/h 86% 0 mm
06:24 18 °C 15.8 °C 1012.4 hPa NE 6.4 km/h 14.5 km/h 87% 0 mm
06:29 18.1 °C 15.8 °C 1012.4 hPa NE 6.4 km/h 14.5 km/h 87% 0 mm
06:34 18 °C 15.8 °C 1012.4 hPa NE 4.8 km/h 12.9 km/h 87% 0 mm
06:39 18 °C 15.8 °C 1012.4 hPa NE 4.8 km/h 12.9 km/h 87% 0 mm
06:44 18.1 °C 15.8 °C 1012.4 hPa NE 4.8 km/h 16.1 km/h 87% 0 mm
06:49 18.1 °C 15.8 °C 1012.4 hPa NE 3.2 km/h 14.5 km/h 87% 0 mm
06:54 18.1 °C 15.8 °C 1012.4 hPa NE 3.2 km/h 14.5 km/h 87% 0 mm
06:59 18.1 °C 15.8 °C 1012.4 hPa NE 3.2 km/h 9.7 km/h 87% 0 mm
07:04 18.1 °C 15.8 °C 1012.4 hPa NE 6.4 km/h 14.5 km/h 87% 0 mm
07:09 18.2 °C 15.9 °C 1012.8 hPa ENE 4.8 km/h 11.3 km/h 87% 0 mm
07:14 18.2 °C 16 °C 1012.8 hPa NE 3.2 km/h 12.9 km/h 87% 0 mm
07:19 18.3 °C 16.1 °C 1012.8 hPa ENE 4.8 km/h 14.5 km/h 87% 0 mm
07:24 18.3 °C 16.1 °C 1012.8 hPa NE 6.4 km/h 14.5 km/h 87% 0 mm
07:29 18.4 °C 16.2 °C 1012.8 hPa NE 6.4 km/h 14.5 km/h 87% 0 mm
07:34 18.6 °C 16.2 °C 1012.8 hPa NE 6.4 km/h 16.1 km/h 86% 0 mm
07:39 18.7 °C 16.3 °C 1012.8 hPa ENE 8 km/h 16.1 km/h 86% 0 mm
07:44 18.7 °C 16.2 °C 1012.8 hPa ENE 4.8 km/h 14.5 km/h 85% 0 mm
07:49 18.8 °C 16.2 °C 1012.8 hPa NE 11.3 km/h 17.7 km/h 85% 0 mm
07:54 18.8 °C 16.1 °C 1013.1 hPa NE 8 km/h 20.9 km/h 84% 0 mm
07:59 19 °C 16.2 °C 1013.1 hPa NE 12.9 km/h 14.5 km/h 84% 0 mm
08:04 19.1 °C 16.3 °C 1013.1 hPa NE 11.3 km/h 16.1 km/h 84% 0 mm
08:09 19.2 °C 16.2 °C 1013.1 hPa NE 6.4 km/h 14.5 km/h 83% 0 mm
08:14 19.2 °C 16.3 °C 1013.1 hPa NE 9.7 km/h 17.7 km/h 83% 0 mm
08:19 19.3 °C 16.4 °C 1013.1 hPa NE 9.7 km/h 19.3 km/h 83% 0 mm
08:24 19.4 °C 16.4 °C 1013.1 hPa NE 9.7 km/h 19.3 km/h 83% 0 mm
08:29 19.4 °C 16.2 °C 1013.1 hPa NE 9.7 km/h 19.3 km/h 82% 0 mm
08:34 19.4 °C 16.3 °C 1013.1 hPa East 8 km/h 20.9 km/h 82% 0 mm
08:44 19.7 °C 16.8 °C 1013.1 hPa ENE 6.4 km/h 12.9 km/h 83% 0 mm
08:49 19.8 °C 16.7 °C 1013.4 hPa ENE 4.8 km/h 16.1 km/h 82% 0 mm
08:54 19.7 °C 16.5 °C 1013.1 hPa ENE 19.3 km/h 24.1 km/h 82% 0 mm
08:59 19.6 °C 16.4 °C 1013.1 hPa NE 4.8 km/h 24.1 km/h 82% 0 mm
09:04 19.8 °C 16.7 °C 1013.1 hPa NE 4.8 km/h 19.3 km/h 82% 0 mm
09:09 19.9 °C 16.6 °C 1013.1 hPa ENE 9.7 km/h 19.3 km/h 81% 0 mm
09:14 20.1 °C 16.7 °C 1013.1 hPa NE 12.9 km/h 16.1 km/h 81% 0 mm
09:19 20 °C 16.6 °C 1013.1 hPa NE 9.7 km/h 19.3 km/h 81% 0 mm
09:24 20.1 °C 16.7 °C 1013.1 hPa NE 6.4 km/h 20.9 km/h 81% 0 mm
09:29 20.2 °C 16.6 °C 1013.1 hPa ENE 19.3 km/h 19.3 km/h 80% 0 mm
09:34 20.4 °C 16.8 °C 1013.1 hPa ENE 6.4 km/h 19.3 km/h 80% 0 mm
09:39 20.6 °C 17.1 °C 1013.1 hPa ENE 8 km/h 19.3 km/h 80% 0 mm
09:44 20.7 °C 16.9 °C 1013.1 hPa ENE 8 km/h 17.7 km/h 79% 0 mm
09:49 20.6 °C 16.8 °C 1013.1 hPa East 8 km/h 17.7 km/h 79% 0 mm
09:54 20.6 °C 16.6 °C 1013.1 hPa ENE 4.8 km/h 20.9 km/h 78% 0 mm
09:59 20.7 °C 16.9 °C 1013.1 hPa ENE 6.4 km/h 17.7 km/h 79% 0 mm
10:04 20.8 °C 17 °C 1013.1 hPa NE 8 km/h 17.7 km/h 79% 0 mm
10:09 20.9 °C 16.9 °C 1013.1 hPa NE 8 km/h 20.9 km/h 78% 0 mm
10:14 20.8 °C 17.1 °C 1013.4 hPa ENE 4.8 km/h 16.1 km/h 79% 0 mm
10:19 20.6 °C 16.6 °C 1013.4 hPa NE 4.8 km/h 19.3 km/h 78% 0 mm
10:24 20.7 °C 16.7 °C 1013.4 hPa ENE 14.5 km/h 20.9 km/h 78% 0 mm
10:29 20.8 °C 16.8 °C 1013.4 hPa NE 9.7 km/h 20.9 km/h 78% 0 mm
10:39 20.7 °C 16.6 °C 1013.4 hPa NE 9.7 km/h 22.5 km/h 77% 0 mm
10:44 20.9 °C 16.8 °C 1013.4 hPa NE 6.4 km/h 17.7 km/h 77% 0 mm
10:49 21.2 °C 17 °C 1013.4 hPa ENE 17.7 km/h 19.3 km/h 77% 0 mm
10:54 21 °C 16.8 °C 1013.4 hPa NE 14.5 km/h 17.7 km/h 77% 0 mm
10:59 21 °C 17 °C 1013.1 hPa NNE 8 km/h 19.3 km/h 78% 0 mm
11:04 21.1 °C 17.1 °C 1013.1 hPa NE 11.3 km/h 17.7 km/h 78% 0 mm
11:09 21.1 °C 16.9 °C 1013.1 hPa NE 6.4 km/h 14.5 km/h 77% 0 mm
11:14 21 °C 16.8 °C 1013.4 hPa ENE 14.5 km/h 16.1 km/h 77% 0 mm
11:19 20.9 °C 16.7 °C 1013.4 hPa NE 6.4 km/h 16.1 km/h 77% 0 mm
11:24 20.8 °C 16.8 °C 1013.4 hPa NE 9.7 km/h 14.5 km/h 78% 0 mm
11:29 20.9 °C 16.9 °C 1013.4 hPa NE 8 km/h 14.5 km/h 78% 0 mm
11:34 21.2 °C 17 °C 1013.4 hPa North 3.2 km/h 12.9 km/h 77% 0 mm
11:39 21.4 °C 17 °C 1013.4 hPa NNE 4.8 km/h 8 km/h 76% 0 mm
11:44 21.2 °C 16.8 °C 1013.4 hPa NNE 4.8 km/h 17.7 km/h 76% 0 mm
11:49 21.1 °C 16.7 °C 1013.4 hPa NE 8 km/h 20.9 km/h 76% 0 mm
11:54 21.1 °C 16.4 °C 1013.4 hPa NE 9.7 km/h 20.9 km/h 75% 0 mm
11:59 21.4 °C 16.8 °C 1013.4 hPa North 4.8 km/h 12.9 km/h 75% 0 mm
12:04 22 °C 16.9 °C 1013.4 hPa NE 3.2 km/h 25.7 km/h 73% 0 mm
12:09 22.5 °C 17.4 °C 1013.4 hPa NE 9.7 km/h 25.7 km/h 73% 0 mm
12:14 22.7 °C 17.2 °C 1013.4 hPa East 4.8 km/h 17.7 km/h 71% 0 mm
12:19 22.2 °C 16.4 °C 1013.4 hPa NNE 6.4 km/h 24.1 km/h 70% 0 mm
12:24 22 °C 16.9 °C 1013.4 hPa ENE 19.3 km/h 19.3 km/h 73% 0 mm
12:34 22.4 °C 17.2 °C 1013.1 hPa ENE 11.3 km/h 24.1 km/h 72% 0 mm
12:39 22.4 °C 16.9 °C 1013.1 hPa ENE 8 km/h 22.5 km/h 71% 0 mm
12:44 22.3 °C 16.8 °C 1013.1 hPa ENE 8 km/h 20.9 km/h 71% 0 mm
12:49 21.9 °C 16.7 °C 1013.4 hPa NE 9.7 km/h 24.1 km/h 72% 0 mm
12:54 22 °C 16.5 °C 1013.4 hPa North 4.8 km/h 16.1 km/h 71% 0 mm
12:59 21.9 °C 16.4 °C 1013.4 hPa ENE 11.3 km/h 24.1 km/h 71% 0 mm
13:04 21.8 °C 16.3 °C 1013.4 hPa NE 8 km/h 16.1 km/h 71% 0 mm
13:09 21.9 °C 16.4 °C 1013.1 hPa NE 8 km/h 20.9 km/h 71% 0 mm
13:14 21.8 °C 16.3 °C 1013.1 hPa NNE 6.4 km/h 16.1 km/h 71% 0 mm
13:19 21.7 °C 16.4 °C 1013.1 hPa NE 14.5 km/h 22.5 km/h 72% 0 mm
13:24 21.8 °C 16.3 °C 1013.1 hPa NE 9.7 km/h 22.5 km/h 71% 0 mm
13:29 22.1 °C 16.6 °C 1013.1 hPa NE 8 km/h 19.3 km/h 71% 0 mm
13:34 22.8 °C 17 °C 1013.1 hPa ENE 14.5 km/h 19.3 km/h 70% 0 mm
13:39 22.8 °C 17.1 °C 1013.1 hPa NNE 4.8 km/h 19.3 km/h 70% 0 mm
13:44 22.6 °C 16.8 °C 1013.1 hPa ENE 12.9 km/h 22.5 km/h 70% 0 mm
13:49 22.6 °C 16.6 °C 1013.1 hPa NE 12.9 km/h 17.7 km/h 69% 0 mm
13:54 23.3 °C 17.1 °C 1013.1 hPa NE 9.7 km/h 24.1 km/h 68% 0 mm
13:59 23.5 °C 17.3 °C 1013.1 hPa ENE 9.7 km/h 24.1 km/h 68% 0 mm
14:04 23.4 °C 16.9 °C 1013.1 hPa NNE 6.4 km/h 19.3 km/h 67% 0 mm
14:09 23.7 °C 16.7 °C 1013.1 hPa NE 9.7 km/h 24.1 km/h 65% 0 mm
14:19 23.2 °C 16 °C 1013.1 hPa NE 9.7 km/h 22.5 km/h 64% 0 mm
14:24 23.6 °C 16.6 °C 1012.8 hPa East 4.8 km/h 14.5 km/h 65% 0 mm
14:29 23.7 °C 16.2 °C 1013.1 hPa East 14.5 km/h 19.3 km/h 63% 0 mm
14:34 23.4 °C 16.2 °C 1013.1 hPa ENE 14.5 km/h 24.1 km/h 64% 0 mm
14:39 23.7 °C 16 °C 1013.1 hPa NE 6.4 km/h 22.5 km/h 62% 0 mm
14:44 22.8 °C 15.9 °C 1012.8 hPa NE 9.7 km/h 22.5 km/h 65% 0 mm
14:49 22.9 °C 16.3 °C 1013.1 hPa NE 8 km/h 20.9 km/h 66% 0 mm
14:54 22.7 °C 15.7 °C 1013.1 hPa NNE 6.4 km/h 22.5 km/h 65% 0 mm
14:59 22.9 °C 15.9 °C 1013.1 hPa ENE 4.8 km/h 24.1 km/h 65% 0 mm
15:04 23.8 °C 16.8 °C 1013.1 hPa NE 4.8 km/h 19.3 km/h 65% 0 mm
15:14 23.6 °C 16.4 °C 1012.8 hPa NE 11.3 km/h 25.7 km/h 64% 0 mm
15:19 23.8 °C 16.1 °C 1012.8 hPa North 4.8 km/h 20.9 km/h 62% 0 mm
15:24 23.8 °C 15.8 °C 1012.8 hPa ENE 8 km/h 24.1 km/h 61% 0 mm
15:29 23.7 °C 16.2 °C 1012.8 hPa North 4.8 km/h 25.7 km/h 63% 0 mm
15:34 23.2 °C 15.5 °C 1012.8 hPa ENE 20.9 km/h 22.5 km/h 62% 0 mm
15:39 23.2 °C 15.3 °C 1012.8 hPa NNE 6.4 km/h 20.9 km/h 61% 0 mm
15:44 23.1 °C 15.4 °C 1012.8 hPa ENE 8 km/h 25.7 km/h 62% 0 mm
15:49 23.3 °C 15.9 °C 1012.8 hPa NE 11.3 km/h 16.1 km/h 63% 0 mm
15:54 23.1 °C 15.4 °C 1012.8 hPa NE 9.7 km/h 24.1 km/h 62% 0 mm
15:59 23.5 °C 15.8 °C 1012.8 hPa NE 11.3 km/h 24.1 km/h 62% 0 mm
16:04 23.3 °C 15.9 °C 1012.4 hPa NE 9.7 km/h 22.5 km/h 63% 0 mm
16:09 22.9 °C 15.2 °C 1012.4 hPa NNE 3.2 km/h 29 km/h 62% 0 mm
16:14 23.1 °C 15.1 °C 1012.4 hPa NE 9.7 km/h 24.1 km/h 61% 0 mm
16:19 22.8 °C 15.2 °C 1012.8 hPa ENE 4.8 km/h 24.1 km/h 62% 0 mm
16:24 23.2 °C 15.7 °C 1012.8 hPa NNE 6.4 km/h 19.3 km/h 63% 0 mm
16:29 22.8 °C 15.4 °C 1012.8 hPa ENE 16.1 km/h 20.9 km/h 63% 0 mm
16:34 22.9 °C 15.5 °C 1012.8 hPa Calm   16.1 km/h 63% 0 mm
16:39 22.8 °C 14.6 °C 1012.8 hPa ENE 14.5 km/h 24.1 km/h 60% 0 mm
16:44 22.4 °C 14.6 °C 1012.8 hPa ENE 17.7 km/h 25.7 km/h 61% 0 mm
16:49 22.1 °C 14.9 °C 1012.8 hPa NE 12.9 km/h 25.7 km/h 64% 0 mm
16:54 22.3 °C 15.2 °C 1012.8 hPa NE 8 km/h 24.1 km/h 64% 0 mm
16:59 22.2 °C 15.1 °C 1012.8 hPa NNE 6.4 km/h 20.9 km/h 64% 0 mm
17:04 21.9 °C 14.8 °C 1012.8 hPa NE 9.7 km/h 22.5 km/h 64% 0 mm
17:09 21.6 °C 14.7 °C 1012.8 hPa NNE 4.8 km/h 20.9 km/h 65% 0 mm
17:14 21.6 °C 14.9 °C 1012.8 hPa NE 4.8 km/h 17.7 km/h 66% 0 mm
17:19 21.7 °C 14.8 °C 1012.8 hPa NE 12.9 km/h 22.5 km/h 65% 0 mm
17:24 21.4 °C 14.3 °C 1012.8 hPa NE 17.7 km/h 24.1 km/h 64% 0 mm
17:29 21.3 °C 14.5 °C 1012.8 hPa NE 11.3 km/h 25.7 km/h 65% 0 mm
17:34 21.2 °C 14.1 °C 1012.8 hPa North 6.4 km/h 24.1 km/h 64% 0 mm
17:39 20.9 °C 14.1 °C 1012.8 hPa NE 8 km/h 24.1 km/h 65% 0 mm
17:44 20.9 °C 14.3 °C 1012.8 hPa NNE 6.4 km/h 14.5 km/h 66% 0 mm
17:49 20.8 °C 13.8 °C 1012.4 hPa NE 8 km/h 14.5 km/h 64% 0 mm
17:54 20.8 °C 13.7 °C 1012.4 hPa North 6.4 km/h 17.7 km/h 64% 0 mm
17:59 20.6 °C 13.8 °C 1012.4 hPa NE 6.4 km/h 20.9 km/h 65% 0 mm
18:04 20.7 °C 13.1 °C 1012.8 hPa NE 11.3 km/h 24.1 km/h 62% 0 mm
18:09 20.8 °C 13.2 °C 1012.8 hPa NE 11.3 km/h 24.1 km/h 62% 0 mm
18:14 20.8 °C 11.9 °C 1012.4 hPa NE 12.9 km/h 30.6 km/h 57% 0 mm
18:19 20.7 °C 12.4 °C 1012.4 hPa NE 12.9 km/h 30.6 km/h 59% 0 mm
18:24 20.7 °C 11.6 °C 1012.4 hPa NE 11.3 km/h 22.5 km/h 56% 0 mm
18:29 20.7 °C 11 °C 1012.4 hPa ENE 6.4 km/h 27.4 km/h 54% 0 mm
18:34 20.6 °C 11.4 °C 1012.8 hPa NE 4.8 km/h 24.1 km/h 56% 0 mm
18:39 20.5 °C 11.2 °C 1012.8 hPa NE 4.8 km/h 20.9 km/h 55% 0 mm
18:44 20.6 °C 11.2 °C 1012.8 hPa ENE 11.3 km/h 20.9 km/h 55% 0 mm
18:49 20.3 °C 11 °C 1012.8 hPa NNE 1.6 km/h 22.5 km/h 55% 0 mm
18:54 20.2 °C 10.6 °C 1012.8 hPa ENE 11.3 km/h 24.1 km/h 54% 0 mm
18:59 20.3 °C 10.9 °C 1012.8 hPa NE 9.7 km/h 24.1 km/h 55% 0 mm
19:04 20.3 °C 11.2 °C 1012.8 hPa NE 9.7 km/h 24.1 km/h 56% 0 mm
19:09 20.2 °C 10.8 °C 1012.8 hPa NE 8 km/h 16.1 km/h 55% 0 mm
19:14 20.1 °C 10.7 °C 1013.1 hPa NE 16.1 km/h 20.9 km/h 55% 0 mm
19:19 19.8 °C 10.8 °C 1012.8 hPa NE 3.2 km/h 16.1 km/h 56% 0 mm
19:24 19.8 °C 10.5 °C 1013.1 hPa NNE 4.8 km/h 20.9 km/h 55% 0 mm
19:29 19.7 °C 10.7 °C 1013.1 hPa NE 8 km/h 20.9 km/h 56% 0 mm
19:34 19.7 °C 10.4 °C 1013.1 hPa NE 8 km/h 20.9 km/h 55% 0 mm
19:39 19.8 °C 10.7 °C 1013.1 hPa ENE 14.5 km/h 19.3 km/h 56% 0 mm
19:44 19.7 °C 10.4 °C 1013.4 hPa ENE 8 km/h 22.5 km/h 55% 0 mm
19:49 19.7 °C 10.4 °C 1013.4 hPa NE 11.3 km/h 20.9 km/h 55% 0 mm
20:04 19.3 °C 10.3 °C 1013.4 hPa ENE 8 km/h 22.5 km/h 56% 0 mm
20:09 19.2 °C 10.4 °C 1013.4 hPa NE 8 km/h 16.1 km/h 57% 0 mm
20:14 19.1 °C 10.4 °C 1013.4 hPa NE 6.4 km/h 16.1 km/h 57% 0 mm
20:19 19.1 °C 10.3 °C 1013.4 hPa NE 4.8 km/h 12.9 km/h 57% 0 mm
20:24 18.9 °C 10.5 °C 1013.4 hPa ENE 4.8 km/h 14.5 km/h 58% 0 mm
20:29 18.8 °C 10.6 °C 1013.4 hPa ENE 4.8 km/h 14.5 km/h 59% 0 mm
20:34 18.6 °C 10.4 °C 1013.4 hPa NE 3.2 km/h 9.7 km/h 59% 0 mm
20:39 18.6 °C 10.6 °C 1013.4 hPa NE 1.6 km/h 9.7 km/h 60% 0 mm
20:44 18.3 °C 10.6 °C 1013.4 hPa Calm   4.8 km/h 61% 0 mm
20:49 18.1 °C 10.7 °C 1013.4 hPa Calm   4.8 km/h 62% 0 mm
20:54 17.8 °C 10.7 °C 1013.4 hPa Calm   4.8 km/h 63% 0 mm
20:59 17.7 °C 10.6 °C 1013.4 hPa Calm   4.8 km/h 63% 0 mm
21:04 17.7 °C 10.6 °C 1013.8 hPa NE 1.6 km/h 4.8 km/h 63% 0 mm
21:09 17.4 °C 10.6 °C 1013.8 hPa Calm   1.6 km/h 64% 0 mm
21:14 17.3 °C 10.7 °C 1013.8 hPa Calm   3.2 km/h 65% 0 mm
21:19 17.3 °C 10.6 °C 1013.8 hPa Calm     65% 0 mm
21:24 17.1 °C 10.5 °C 1013.8 hPa Calm     65% 0 mm
21:29 16.9 °C 10.6 °C 1013.8 hPa Calm     66% 0 mm
21:34 16.8 °C 10.7 °C 1013.8 hPa Calm     67% 0 mm
21:39 16.7 °C 10.6 °C 1013.8 hPa Calm     67% 0 mm
21:44 16.6 °C 10.7 °C 1013.8 hPa Calm     68% 0 mm
21:49 16.6 °C 10.6 °C 1013.8 hPa Calm     68% 0 mm
21:54 16.5 °C 10.8 °C 1013.8 hPa Calm   1.6 km/h 69% 0 mm
21:59 16.5 °C 10.8 °C 1013.8 hPa Calm   1.6 km/h 69% 0 mm
22:04 16.4 °C 10.5 °C 1013.8 hPa Calm   1.6 km/h 68% 0 mm
22:09 16.3 °C 10.6 °C 1013.8 hPa Calm     69% 0 mm
22:14 16.3 °C 10.6 °C 1013.8 hPa Calm     69% 0 mm
22:19 16.2 °C 10.7 °C 1013.8 hPa Calm     70% 0 mm
22:24 16.1 °C 10.6 °C 1013.8 hPa Calm     70% 0 mm
22:29 16.1 °C 10.8 °C 1013.8 hPa Calm     71% 0 mm
22:34 15.9 °C 10.7 °C 1013.8 hPa Calm     71% 0 mm
22:39 15.9 °C 10.7 °C 1013.8 hPa Calm     71% 0 mm
22:44 16 °C 10.6 °C 1014.1 hPa Calm     70% 0 mm
22:54 15.6 °C 10.6 °C 1013.8 hPa Calm     72% 0 mm
22:59 15.7 °C 10.6 °C 1013.8 hPa Calm     72% 0 mm
23:04 15.6 °C 10.6 °C 1013.8 hPa Calm     72% 0 mm
23:09 15.5 °C 10.4 °C 1013.8 hPa Calm     72% 0 mm
23:14 15.4 °C 10.8 °C 1013.8 hPa Calm     74% 0 mm
23:19 15.3 °C 10.7 °C 1013.8 hPa Calm     74% 0 mm
23:24 15.3 °C 10.7 °C 1013.8 hPa Calm     74% 0 mm
23:29 15.2 °C 10.6 °C 1013.8 hPa Calm     74% 0 mm
23:34 15.4 °C 10.8 °C 1013.8 hPa Calm     74% 0 mm
23:39 15.4 °C 10.8 °C 1013.8 hPa Calm     74% 0 mm
23:44 15.3 °C 10.9 °C 1013.8 hPa Calm     75% 0 mm
23:49 15.2 °C 10.8 °C 1013.8 hPa Calm     75% 0 mm
23:54 15.1 °C 10.9 °C 1013.8 hPa Calm     76% 0 mm
23:59 15.1 °C 10.9 °C 1013.8 hPa Calm     76% 0 mm
Buffalo, New York, USA
Compliments of Weather Underground - 2.25 mb